Showing default

BRIO, 43813

Orbit data source: Space-Track

BRIO, 43813 is an American payload satellite in SSO that was launched on Mon, 03 Dec 2018 UTC via an FALCON 9 launch vehicle from the Air Force Western Test Range (AFWTR). Payloads include a variety of satellites, spacecraft, and rockets equipped with specific instruments for various scientific and technological missions. These include communications satellites like Starlink; space stations such as the ISS; scientific satellites like the Hubble; Earth observation satellites from companies like Planet Labs, Umbra, and HawkEye 360; GPS; miniature CubeSats for education and research; and military/defense satellites.

Loading next visibility...
BRIO details
Identifier
43813, 2018-099BH
Orbit
SSO
Last TLE update12 hours ago
Origin
Flag of USMYRI/SPQ (US)
ManufacturerSpaceQuest
MissionOperational Commercial Technology
Bus & MotorCUBESAT 3U, Unknown motor
Mass5 kg wet, 5 kg dry
Launch date (UTC)
2018-12-03 (6 years ago)
Launch vehicle
FALCON 9
Launch site
Air Force Western Test Range (AFWTR)
Object type
Payload
Rocket body
Debris
Shape & HBRBox, 0.3 m
Radar Cross Section0.035 m², Medium (>0.1 m² and < 1m²)

Expand to show TLE details & history

TLE from 12 hours ago
0 BRIO
1 43813U 18099BH  24361.19006438  .00062311  00000-0  18603-2 0  9996
2 43813  97.5440  70.8158 0004936 342.4667  17.6404 15.34381599331910
Epoch: 2024-12-26T04:33Z
Definitive object data (Epoch: 2024-12-26T04:33:41.562Z)
Latitude-0.00006°
Longitude-92.78039°
Altitude462.645 km
Speed7.637 km/s
True Right ascension04h 43m 15s
True Declination0° 00' 00"
Sunlit
Object was in full shadow at TLE epoch
Visualization TLE readout
Latitude-38.29154°
Longitude-86.28591°
Altitude474.038 km
Speed7.629 km/s
Apparent Right ascension04h 44m 26s
Apparent Declination-39° 04' 27"
Sunlit
Object is in full shadow
Visualization observer readout
Local Sidereal Time16:17:09
Azimuth276.91° WNW
Elevation-84.672°
Doppler factor1
Orbital elements
Apogee altitude463.086 km
Perigee altitude456.335 km
Semi-major axis6,837.848 km
Eccentricity0.0004936
Inclination97.544°
RAAN70.8158°
Arg. of periapsis342.4667°
True anomaly17.65755°
Mean anomaly17.6404°
Eccentric anomaly17.64897°
Mean motion3.83852 °/min
BSTAR0.0018603
Orbital period93.79 mins
Loading maneuver chart data...
Loading historical data...
Loading historical data...
Loading historical data...
Loading historical data...
Loading historical data...
Loading historical data...
Loading historical data...

BRIO Visibility forecast

Observer location: undefined°, undefined

Span
Click to sort rows by Start time (UTC) header in descending order
Start Az.
Max El. time (UTC)
Max El. Az.
Max El.
End time (UTC)
End Az.
5 mins2024-12-26 17:38:54.636Z18.89° NNE2024-12-26 17:41:54.636Z156.061° SSE40.645°2024-12-26 17:43:54.636Z184.023° SSW
4 mins2024-12-27 04:11:54.636Z104.721° ESE2024-12-27 04:12:54.636Z82.547° E19.699°2024-12-27 04:15:54.636Z20.252° NNE
|